www.pogodaiklimat.ru

Погода и климат >> Архив погоды >> Филиппины >> Замбоанга


ПОГОДА в Замбоанге

  • Прогноз погоды в Замбоанге
  • Монитор погоды в Замбоанге

АРХИВ ПОГОДЫ в Замбоанге

Время (UTC), дата Ветер
(напр.,м/с)
 
Видим.   Явления Облачность Т
(С)
Тd
(С)
f
(%)
Тe
(С)
Тes
(С)
Комфортность P
(гПа)
Po
(гПа)
Тmin
(С)
Tmax
(С)
R
(мм)
R24
(мм)
S
(см)
12 18.06 З 4 10 км {ливн. осадки, дождь} 6/3 500 м
[Cu Sc Ac As Ci fib]
+26.8 +23.7 83 +37 +37 очень
душно
1010.6 1009.8 +32.5 0.3
15 18.06 штиль 0 10 км 4/1 500 м
[Cu med, cong Ci fib]
+25.6 +24.0 91 +35 +35 очень
душно
1010.3 1009.5
18 18.06 штиль 0 10 км 6/1 500 м
[Cu med, cong Ac trans Cs]
+24.5 +23.3 93 +33 +33 очень
душно
1009.5 1008.7
21 18.06 штиль 0 10 км 9/4 480 м
[Cu Sc Ac As]
+24.2 +23.2 94 +32 +32 очень
душно
1009.4 1008.6
00 19.06 ЮЗ 2 11 км мгла {туман} 6/3 480 м
[Cb calv Ac trans Cc]
+28.1 +25.9 88 +42 +46 опасность
перегрева
1010.4 1009.6 +23.8 6
03 19.06 ЮЗ 2 11 км мгла {туман} 9/3 500 м
[Cu med, cong Ac As Ci fib]
+31.2 +26.2 75 +47 +55 опасность
перегрева
1009.6 1008.8
06 19.06 З 2 11 км мгла {туман} 8/3 500 м
[Cu Sc Ac As Ci fib]
+31.0 +25.7 73 +46 +52 опасность
перегрева
1008.0 1007.2
09 19.06 З 3 11 км мгла {туман} 6/1 500 м
[Cu med, cong Ac As Ci fib]
+30.5 +26.6 80 +47 +48 опасность
перегрева
1007.8 1007.0
12 19.06 З 2 10 км 4/1 500 м
[Cu med, cong Ci fib]
+27.7 +24.6 83 +39 +39 очень
душно
1009.2 1008.4 +32.5
15 19.06 В 2 10 км 6/4 480 м
[Cu Sc Ci fib]
+26.2 +24.3 89 +36 +36 очень
душно
1009.8 1009.0
18 19.06 З 1 10 км 4/1 500 м
[Cu med, cong Ci fib]
+25.6 +24.4 93 +36 +36 очень
душно
1008.6 1007.8
21 19.06 З 1 10 км 9/3 500 м
[Cu med, cong Ac As]
+25.6 +24.1 91 +35 +35 очень
душно
1009.3 1008.5
00 20.06 штиль 0 10 км мгла {туман} 10/4 500 м
[Cb calv Ac As]
+25.9 +23.6 87 +35 +37 очень
душно
1010.9 1010.1 +24.7
03 20.06 СВ 2 10 км мгла {туман} 10/3 500 м
[Cu med, cong Ac As Cs]
+29.5 +25.2 78 +43 +50 опасность
перегрева
1010.6 1009.8
06 20.06 Ю 2 11 км мгла {туман} 6/3 500 м
[Cu med, cong Ac As Ci fib]
+32.0 +28.8 83 +55 +63 опасность
перегрева
1008.6 1007.8
09 20.06 З 2 10 км мгла {туман} 8/1 500 м
[Cu med, cong Ac trans Cs]
+30.6 +24.2 69 +43 +43 опасность
перегрева
1008.7 1007.9
12 20.06 штиль 0 10 км мгла {туман} 6/1 500 м
[Cu med, cong Ci fib]
+28.0 +24.8 83 +40 +40 очень
душно
1010.2 1009.4 +33.4
15 20.06 штиль 0 11 км 6/1 500 м
[Cu med, cong Ac trans Ci fib]
+26.6 +24.7 89 +38 +38 очень
душно
1010.7 1009.9
18 20.06 штиль 0 11 км 5/1 500 м
[Cu med, cong Ci fib]
+26.2 +24.0 88 +36 +36 очень
душно
1009.1 1008.3
21 20.06 штиль 0 11 км 8/3 500 м
[Cu med, cong Ac As]
+26.5 +24.2 87 +37 +37 очень
душно
1009.1 1008.3
00 21.06 ЮЗ 2 10 км мгла {туман} 9/3 500 м
[Cu med, cong Ac As Cs]
+28.6 +24.6 79 +41 +43 опасность
перегрева
1010.5 1009.7 +25.1
03 21.06 ЮЗ 2 11 км мгла {туман} 8/1 500 м
[Cu med, cong Ac As Ci fib]
+31.8 +24.5 65 +44 +55 опасность
перегрева
1010.1 1009.3 0.1
06 21.06 З 5 10 км мгла {туман} 9/1 500 м
[Cu med, cong Ac As Cs]
+30.8 +24.5 69 +43 +47 опасность
перегрева
1008.0 1007.2 0.1
09 21.06 З 2 11 км мгла {туман} 9/5 500 м
[Cu Sc Ac cuf Ci sp]
+29.7 +23.4 69 +40 +41 очень
душно
1008.0 1007.2
12 21.06 СВ 1 11 км {туман} 8/3 500 м
[Cu Sc Ac As Cs]
+28.5 +25.1 82 +41 +41 опасность
перегрева
1009.7 1008.9 +32.2
15 21.06 штиль 0 11 км 5/1 500 м
[Cu med, cong Ci fib]
+26.8 +24.4 87 +38 +38 очень
душно
1010.2 1009.4
18 21.06 штиль 0 11 км 4/1 500 м
[Cu med, cong Ac trans Ci fib]
+26.0 +24.7 93 +37 +37 очень
душно
1008.6 1007.8
21 21.06 штиль 0 11 км 9/3 500 м
[Cu med, cong Ac As Ci fib]
+25.8 +23.9 89 +35 +35 очень
душно
1008.2 1007.4
00 22.06 Ю 1 11 км мгла {туман} 5/4 500 м
[Cu med, cong Ci fib]
+29.7 +25.0 76 +43 +47 опасность
перегрева
1009.8 1009.0 +24.6 0.1
03 22.06 В 3 12 км мгла {туман} 6/4 500 м
[Cu med, cong Ac As Ci fib]
+34.8 +24.1 54 +47 +55 опасность
перегрева
1009.3 1008.5
06 22.06 В 2 10 км мгла {туман} 8/4 480 м
[Cb cap Ac As Ci fib]
+33.2 +25.1 63 +47 +53 опасность
перегрева
1007.1 1006.3
09 22.06 В 2 10 км 9/5 480 м
[Cb cap Ac As Ci fib]
+30.6 +25.0 72 +44 +44 опасность
перегрева
1007.2 1006.4
12 22.06 СВ 2 10 км 6/1 500 м
[Cu med, cong Ac As]
+29.8 +24.8 75 +43 +43 опасность
перегрева
1009.1 1008.3 +35.0
15 22.06 С 2 11 км 1/1 500 м
[Cu med, cong Ci fib]
+26.8 +24.5 87 +38 +38 очень
душно
1009.5 1008.7
18 22.06 С 2 11 км 1/1 500 м
[Cu med, cong Ci fib]
+25.8 +24.2 91 +36 +36 очень
душно
1008.2 1007.4
21 22.06 С 2 11 км 3/1 500 м
[Cu med, cong Ac trans Ci fib]
+25.5 +23.5 89 +35 +35 очень
душно
1008.2 1007.4
00 23.06 С 1 11 км мгла {туман} 4/1 500 м
[Cu med, cong Ac trans Ci fib]
+30.2 +25.5 76 +44 +50 опасность
перегрева
1009.7 1008.9 +25.0
03 23.06 Ю 2 10 км мгла {туман} 4/3 500 м
[Cu med, cong Ac As Ci fib]
+33.8 +25.1 61 +48 +61 опасность
перегрева
1009.6 1008.8
06 23.06 Ю 2 10 км мгла {туман} 5/3 480 м
[Cb calv Ac As Ci fib]
+33.8 +25.1 61 +48 +57 опасность
перегрева
1007.9 1007.1
09 23.06 В 2 10 км 9/4 480 м
[Cb cap Ac As Ci fib]
+31.2 +24.6 68 +44 +44 опасность
перегрева
1008.0 1007.2
12 23.06 С 1 10 км 9/3 500 м
[Cu med, cong Ac As Ci fib]
+28.8 +25.7 83 +43 +43 опасность
перегрева
1010.4 1009.6 +34.5
15 23.06 С 1 10 км 9/3 500 м
[Cu Sc Ac As Cs]
+27.6 +25.0 86 +40 +40 очень
душно
1011.1 1010.3
18 23.06 штиль 0 10 км 3/1 500 м
[Cu med, cong Ci fib]
+26.2 +24.3 89 +36 +36 очень
душно
1010.0 1009.2
21 23.06 штиль 0 10 км 9/1 500 м
[Cu med, cong Ac trans Cs]
+25.2 +23.6 91 +34 +34 очень
душно
1010.1 1009.3
00 24.06 З 2 10 км мгла {туман} 9/3 500 м
[Cu med, cong Ac As]
+28.5 +24.3 78 +40 +42 очень
душно
1012.2 1011.4 +24.4
03 24.06 З 4 10 км слаб. ливневой дождь {туман} 10/5 480 м
[Cb cap Ac As]
+27.8 +24.8 84 +40 +42 очень
душно
1012.8 1012.0 0.0
06 24.06 ЮЗ 4 10 км слаб. дождь 10/4 480 м
[Cu Sc Ac As]
+28.8 +25.4 82 +42 +44 опасность
перегрева
1010.5 1009.7 1
09 24.06 штиль 0 10 км 9/1 500 м
[Cu med, cong Ac As]
+27.0 +25.4 91 +39 +40 очень
душно
1011.5 1010.7
12 24.06 штиль 0 10 км 9/1 500 м
[Cu med, cong Ac As]
+26.8 +25.1 90 +39 +39 очень
душно
1007.7 1006.9 +30.0
15 24.06 штиль 0 10 км 9/1 500 м
[Cu med, cong Ac As]
+25.9 +23.7 88 +35 +35 очень
душно
1012.5 1011.7
18 24.06 штиль 0 10 км 9/1 500 м
[Cu med, cong Ac As]
+25.2 +23.7 91 +34 +34 очень
душно
1010.6 1009.8
21 24.06 штиль 0 10 км 5/1 500 м
[Cu med, cong Ac trans Ci fib]
+24.6 +23.5 94 +33 +33 очень
душно
1011.2 1010.4
00 25.06 штиль 0 11 км мгла 5/1 500 м
[Cu med, cong Ac trans Ci fib]
+28.8 +24.3 77 +40 +46 очень
душно
1012.6 1011.8 +23.2 1
03 25.06 ЮЗ 3 11 км мгла {туман} 8/1 500 м
[Cu med, cong Ac trans Cs]
+33.2 +23.2 56 +44 +53 опасность
перегрева
1012.4 1011.6
06 25.06 ЮЗ 5 12 км мгла {туман} 9/1 500 м
[Cu med, cong Ac As Cs]
+34.2 +21.3 47 +42 +46 опасность
перегрева
1010.1 1009.3
09 25.06 З 4 11 км мгла {туман} 6/1 500 м
[Cu med, cong Ac trans Ci fib]
+30.8 +23.9 67 +42 +43 опасность
перегрева
1010.2 1009.4

 

Местоположение метеостанции Замбоанга (Филиппины): широта 6.90 долгота 122.06 высота над уровнем моря 6 м.

В архиве по умолчанию представлена погода в Замбоанге за последнюю неделю. Архивные данные за месяц целиком и за предыдущие месяцы, начиная с января 2011 года, Вы можете получить, выбрав интересующий диапазон дат из раскрывающегося списка и нажав кнопку "Ввод!".


*Определитесь, кто Вы:
робот инопланетянин человек

Внимание! Время в таблицах - всемирное. Для получения местного времени необходимо прибавить поправку, которая равна 8 ч.

Смотрите также архив погоды в соседних городах и на ближайших метеорологических станциях:

Погода в Дипологе (Филиппины) (237 км)
Погода в Котобато (Филиппины) (240 км)
Погода в Кагаян-де-Оро (Филиппины) (298 км)
Погода в Думагете (Филиппины) (300 км)
Погода в Генерал-Сантосе (Филиппины) (356 км)
Погода в Тагбиларане (Филиппины) (359 км)
Погода в Малайбалае (Филиппины) (361 км)
Погода в Давао (Филиппины) (397 км)
Погода в Мактане (Филиппины) (432 км)
Погода в Бутуане (Филиппины) (442 км)

Пояснения к столбцам:

Ветер - указаны скорость ветра в м/с - средняя за 10 мин, порывы в срок и между сроками (в фигурных скобках) и направление, откуда дует ветер: С - северный, СВ - северо-восточный, В - восточный, ЮВ - юго-восточный, Ю - южный, ЮЗ - юго-западный, З - западный, СЗ - северо-западный.
Видимость - горизонтальная дальность видимости в метрах или километрах. При видимости от 1 до 10 км при отсутствии осадков обычно наблюдается дымка, при ухудшении видимости до 1 км и менее - туман. В сухую погоду видимость может ухудшаться дымом, пылью или мглою.
Явления - указаны атмосферные явления, наблюдавшиеся в срок или в последний час перед сроком; фигурными скобками обозначены явления, наблюдавшиеся между сроками (за 1-3 часа до срока); квадратными скобками обозначены град или гололедные отложения с указанием их диаметра в мм.
Облачность - указаны через наклонную черту общая и нижняя облачность в баллах и высота нижней границы облаков в метрах; квадратными скобками обозначены формы облаков: Ci - перистые, Cs - перисто-слоистые, Cc - перисто-кучевые, Ac - высококучевые, As - высокослоистые, Sc - слоисто-кучевые, Ns - слоисто-дождевые, Cu - кучевые, Cb - кучево-дождевые. Подробнее классификацию облаков см. в Атласе облаков (PDF).
T - Температура воздуха - температура, измеренная на высоте 2 м над землей.
Td - Температура точки росы - температура, при понижении до которой содержащийся в воздухе водяной пар достигнет насыщения.
f - Относительная влажность воздуха - влажноcть воздуха, измеренная на высоте 2 м над землей.
Te - Эффективная температура - температура, которую ощущает одетый по сезону человек в тени. Характеристика душности погоды. При расчете учитывается влияние влажности воздуха и скорости ветра на теплоощущения человека.
Tes - Эффективная температура на солнце - температура, которую ощущает человек, с поправкой на солнечный нагрев. Характеристика знойности погоды. Зависит от высоты солнца над горизонтом, облачности и скорости ветра. Ночью, в пасмурную погоду, а также при ветре 12 м/с и более поправка равна нулю.
P - Атмосферное давление - приведенное к уровню моря атмосферное давление.
Po - Атмосферное давление - измеренное на уровне метеостанции атмосферное давление.
Tmin - Минимальная температура - минимум температуры воздуха на высоте 2 м над землей.
Tmax - Максимальная температура - максимум температуры воздуха на высоте 2 м над землей.
R - Количество осадков - Количество выпавших осадков за период времени, мм. При наведении курсора мыши на число - период времени, за который выпало указанное количество осадков.
R24 - Количество осадков - Количество выпавших осадков за 24 часа, мм.
S - Снежный покров - Высота снежного покрова, см. При наведении курсора мыши на число - состояние снежного покрова и степень покрытия местности в баллах.